#timestamp,LO_Frequency,Hit,StdDev 
1630353615.2,286046999.5,N
1630353635.0,286046998.8,N
1630353635.9,286046998.8,N
1630353655.8,286046999.5,N
1630353675.6,286047000.6,N
1630353695.4,286047000.5,N
1630353715.3,286046998.9,N
1630353735.1,286046998.2,N
1630353755.9,286046998.7,N
1630353775.7,286047000.7,N
1630353795.5,286047000.9,N
1630353815.4,286047000.5,N
1630353835.2,286046999.8,N
1630353855.1,286047002.4,N
1630353856.0,286047002.4,N
1630353875.8,286047001.6,N
1630353895.6,286047002.0,N
1630353915.5,286047001.6,N
1630353935.3,286047003.4,N
1630353955.1,286047003.7,N
1630353975.9,286047004.0,N
1630353995.7,286047004.4,N
1630354015.6,286047004.2,N
1630354035.4,286047004.2,N
1630354055.2,286047001.7,N
1630354075.1,286047002.0,N
1630354076.0,286047002.0,N
1630354095.8,286047002.4,N
1630354115.7,286047002.7,N
1630354135.5,286047003.1,N
1630354155.3,286047004.0,N
1630354175.2,286047003.7,N
1630354195.0,286047001.3,N
1630354195.9,286047001.3,N
1630354215.8,286047003.1,N
1630354235.6,286047002.9,N
1630354255.4,286047003.2,N
1630354275.3,286047006.0,Y
1630354295.1,286047002.7,P
1630354315.8,286047002.1,P
1630354335.7,286047002.4,P
1630354355.5,286046999.7,N
1630354375.4,286047002.4,N
1630354395.2,286047002.3,N
1630354415.0,286046999.8,N
1630354415.9,286046999.8,N
1630354435.8,286047000.3,N
1630354455.6,286046999.7,N
1630354475.4,286047002.3,N
1630354495.3,286047002.0,N
1630354515.1,286046999.8,N
1630354535.9,286046999.9,N
1630354555.7,286046999.8,N
1630354575.5,286047002.8,N
1630354595.4,286047001.6,N
1630354615.2,286047002.2,N
1630354635.0,286047000.3,N
1630354635.9,286047000.3,N
1630354655.8,286047000.2,N
1630354675.6,286047000.5,N
1630354695.4,286047000.3,N
1630354715.3,286046998.4,N
1630354735.1,286046999.4,N
1630354755.9,286046998.6,N
1630354775.7,286046999.2,N
1630354795.5,286046999.2,N
1630354815.4,286047000.8,N
1630354835.2,286046999.9,N
1630354855.0,286047001.2,N
1630354855.9,286047001.2,N
1630354875.8,286047000.8,N
1630354895.6,286046998.9,N
1630354915.5,286047001.2,N
1630354935.3,286046998.4,N
1630354955.1,286046998.4,N
1630354975.9,286046999.2,N
1630354995.7,286046996.6,N
1630355015.5,286046999.6,N
1630355035.4,286046999.4,N
1630355055.2,286046999.5,N
1630355075.1,286046999.4,N
1630355076.0,286046999.4,N
1630355095.8,286046996.6,N
1630355115.6,286046997.3,N
1630355135.5,286046997.8,N
1630355155.3,286046996.9,N
1630355175.1,286046997.4,N
1630355195.9,286046996.5,N
1630355215.7,286046997.1,N
1630355235.6,286046997.4,N
1630355255.4,286046996.7,N
1630355275.2,286046999.4,N
1630355295.1,286047000.7,N
1630355296.0,286047000.7,N
1630355315.8,286046998.3,N
1630355335.6,286046998.7,N
1630355355.5,286047000.9,N
1630355375.3,286047002.8,N
1630355395.2,286047000.7,N
1630355415.9,286046998.7,N
1630355435.7,286046998.2,N
1630355455.6,286047000.8,N
1630355475.4,286046998.1,N
1630355495.2,286047001.0,N
1630355515.1,286047001.1,N
1630355516.0,286047001.1,N
1630355535.8,286046998.4,N
1630355555.7,286046999.5,N
1630355575.5,286046999.6,N
1630355595.3,286046999.0,N
1630355615.2,286046996.9,N
1630355635.9,286046996.8,N
1630355655.7,286046996.5,N
1630355675.6,286046999.1,N
1630355695.4,286046996.5,N
1630355715.2,286046999.0,N
1630355735.1,286046998.8,N
1630355736.0,286046998.8,N
1630355755.8,286046999.0,N
1630355775.7,286046998.4,N
1630355795.5,286046996.7,N
1630355815.3,286046996.8,N
1630355835.2,286046998.3,N
1630355855.0,286046998.4,N
1630355855.9,286046998.4,N
1630355875.7,286047001.2,N
1630355895.6,286046999.3,N
1630355915.4,286047000.7,N
1630355935.3,286046998.9,N
1630355955.1,286046997.1,N
1630355956.0,286046997.1,N
1630355975.8,286046997.8,N
1630355995.7,286046996.1,N
1630356015.5,286046996.9,N
1630356035.3,286046998.7,N
1630356055.2,286046998.5,N
1630356075.0,286046999.4,N
1630356075.9,286046999.4,N
1630356095.8,286046996.5,N
1630356115.6,286046996.5,N
1630356135.4,286046999.3,N
1630356155.3,286047001.1,N
1630356175.1,286046998.2,N
1630356195.9,286047000.6,N
1630356215.7,286047000.7,N
1630356235.5,286047001.2,N
1630356255.4,286046998.4,N
1630356275.2,286047002.7,N
1630356295.0,286047000.1,N
1630356296.0,286047000.1,N
1630356315.8,286047000.0,N
1630356335.6,286047001.1,N
1630356355.5,286046998.2,N
1630356375.3,286047000.7,N
1630356395.1,286047001.1,N
1630356415.9,286046996.9,N
1630356435.7,286046998.9,N
1630356455.6,286046998.5,N
1630356475.4,286046998.4,N
1630356495.2,286046996.6,N
1630356515.1,286046999.4,N
1630356516.0,286046999.4,N
1630356535.8,286046996.8,N
1630356555.7,286046997.4,N
1630356575.5,286046997.6,N
1630356595.3,286046996.9,N
1630356615.2,286046996.9,N
1630356635.0,286046997.3,N
1630356635.9,286046997.3,N
1630356655.8,286046999.6,N
1630356675.6,286046999.2,N
1630356695.4,286046999.6,N
1630356715.3,286046999.1,N
1630356735.1,286046996.6,N
1630356755.8,286046997.0,N
1630356775.7,286046999.3,N
1630356795.5,286046998.2,N
1630356815.4,286046998.9,N
1630356835.2,286046996.7,N
1630356855.0,286046994.9,Y
1630356855.9,286046994.9,P
1630356875.8,286046997.0,N
1630356895.6,286046999.4,N
1630356915.5,286046998.6,N
1630356935.3,286047000.8,N
1630356955.1,286047000.5,N
1630356975.9,286046998.2,N
1630356995.7,286046998.4,N
1630357015.5,286046998.5,N
1630357035.4,286046998.1,N
1630357055.2,286046998.5,N
1630357075.1,286046999.6,N
1630357076.0,286046999.6,N
1630357095.8,286046999.0,N
1630357115.6,286046999.6,N
1630357135.5,286047001.1,N
1630357155.3,286046998.3,N
1630357175.2,286046999.1,N
1630357195.9,286046998.8,N
